• In Romania
  • List of Countries
  • For 7 days
  • Water Temperature
  • Satellite Maps
  • Weather Map
  • Weather Widgets
  • user-avatar
    Login

    Hourly Weather Salgotarjan

    Today, 21 April, Saturday

    Time Temperature Precipitation Wind Pressure Humidity
    00:00 +12°C° 0 mm 1 mps 736 mmHg 69%
    01:00 +10°C° 0 mm 0 mps 736 mmHg 69%
    02:00 +10°C° 0 mm 0 mps 736 mmHg 70%
    03:00 +10°C° 0 mm 0 mps 736 mmHg 70%
    04:00 +9°C° 0 mm 0 mps 735 mmHg 71%
    05:00 +11°C° 0 mm 0 mps 736 mmHg 68%
    06:00 +12°C° 0 mm 0 mps 736 mmHg 64%
    07:00 +14°C° 0 mm 0 mps 736 mmHg 59%
    08:00 +18°C° 0 mm 1 mps 736 mmHg 54%
    09:00 +19°C° 0 mm 1 mps 736 mmHg 49%
    10:00 +20°C° 0 mm 2 mps 736 mmHg 44%
    11:00 +21°C° 0 mm 2 mps 735 mmHg 43%
    12:00 +22°C° 0 mm 3 mps 735 mmHg 42%
    13:00 +24°C° 0 mm 3 mps 735 mmHg 41%
    14:00 +24°C° 0 mm 3 mps 734 mmHg 42%
    15:00 +24°C° 0 mm 3 mps 734 mmHg 44%
    16:00 +24°C° 0 mm 3 mps 734 mmHg 45%
    17:00 +21°C° 0 mm 3 mps 733 mmHg 52%
    18:00 +19°C° 0 mm 2 mps 733 mmHg 59%
    19:00 +17°C° 0 mm 2 mps 733 mmHg 66%
    20:00 +16°C° 0 mm 2 mps 733 mmHg 68%
    21:00 +16°C° 0 mm 2 mps 733 mmHg 69%
    22:00 +15°C° 0 mm 2 mps 732 mmHg 71%
    23:00 +14°C° 0 mm 2 mps 732 mmHg 72%

    Tomorrow, 22 April, Sunday

    Time Temperature Precipitation Wind Pressure Humidity
    00:00 +14°C° 0 mm 1 mps 732 mmHg 74%
    01:00 +14°C° 0 mm 1 mps 732 mmHg 75%
    02:00 +13°C° 0 mm 1 mps 732 mmHg 77%
    03:00 +13°C° 0 mm 1 mps 732 mmHg 79%
    04:00 +13°C° 0 mm 1 mps 732 mmHg 80%
    05:00 +14°C° 0 mm 1 mps 732 mmHg 77%
    06:00 +14°C° 0 mm 0 mps 732 mmHg 73%
    07:00 +16°C° 0 mm 0 mps 732 mmHg 69%
    08:00 +20°C° 0 mm 1 mps 732 mmHg 63%
    09:00 +21°C° 0 mm 1 mps 733 mmHg 58%
    10:00 +23°C° 0 mm 1 mps 733 mmHg 53%
    11:00 +24°C° 0.1 mm 2 mps 733 mmHg 51%
    12:00 +24°C° 0.1 mm 2 mps 732 mmHg 49%
    13:00 +25°C° 0.1 mm 2 mps 732 mmHg 47%
    14:00 +25°C° 0.4 mm 2 mps 732 mmHg 49%
    15:00 +25°C° 0.4 mm 2 mps 731 mmHg 50%
    16:00 +25°C° 0.4 mm 2 mps 731 mmHg 51%
    17:00 +23°C° 0.1 mm 1 mps 731 mmHg 58%
    18:00 +21°C° 0.1 mm 1 mps 731 mmHg 65%
    19:00 +19°C° 0.1 mm 1 mps 731 mmHg 72%
    20:00 +18°C° 0 mm 1 mps 731 mmHg 74%
    21:00 +16°C° 0 mm 1 mps 731 mmHg 76%
    22:00 +16°C° 0 mm 1 mps 731 mmHg 79%
    23:00 +15°C° 0 mm 1 mps 731 mmHg 80%

    Day after tomorrow, 23 April, Monday

    Time Temperature Precipitation Wind Pressure Humidity
    00:00 +15°C° 0 mm 1 mps 731 mmHg 82%
    01:00 +14°C° 0 mm 1 mps 731 mmHg 83%
    02:00 +14°C° 0 mm 1 mps 731 mmHg 84%
    03:00 +13°C° 0 mm 1 mps 731 mmHg 85%
    04:00 +13°C° 0 mm 1 mps 731 mmHg 85%
    05:00 +14°C° 0 mm 1 mps 731 mmHg 81%
    06:00 +15°C° 0 mm 1 mps 731 mmHg 77%
    07:00 +16°C° 0 mm 1 mps 731 mmHg 72%
    08:00 +19°C° 0 mm 1 mps 731 mmHg 66%
    09:00 +21°C° 0 mm 1 mps 731 mmHg 60%
    10:00 +24°C° 0 mm 1 mps 732 mmHg 54%
    11:00 +24°C° 0.1 mm 1 mps 731 mmHg 51%
    12:00 +25°C° 0.1 mm 2 mps 731 mmHg 49%
    13:00 +26°C° 0.1 mm 3 mps 731 mmHg 47%
    14:00 +26°C° 0.3 mm 3 mps 731 mmHg 50%
    15:00 +25°C° 0.3 mm 3 mps 730 mmHg 52%
    16:00 +25°C° 0.3 mm 3 mps 730 mmHg 55%
    17:00 +23°C° 0.1 mm 2 mps 730 mmHg 61%
    18:00 +20°C° 0.1 mm 2 mps 730 mmHg 67%
    19:00 +20°C° 0.1 mm 1 mps 730 mmHg 73%
    20:00 +18°C° 0.7 mm 2 mps 730 mmHg 76%
    21:00 +17°C° 0.7 mm 2 mps 730 mmHg 79%
    22:00 +17°C° 0.7 mm 2 mps 730 mmHg 82%
    23:00 +16°C° 0.2 mm 2 mps 730 mmHg 83%

    24 April, Tuesday

    Time Temperature Precipitation Wind Pressure Humidity
    00:00 +16°C° 0.2 mm 2 mps 730 mmHg 85%
    01:00 +14°C° 0.2 mm 3 mps 731 mmHg 87%
    02:00 +14°C° 0 mm 3 mps 731 mmHg 89%
    03:00 +13°C° 0 mm 3 mps 731 mmHg 90%
    04:00 +13°C° 0 mm 3 mps 731 mmHg 91%
    05:00 +15°C° 0 mm 2 mps 732 mmHg 88%
    06:00 +15°C° 0 mm 2 mps 732 mmHg 85%
    07:00 +16°C° 0 mm 2 mps 732 mmHg 83%
    08:00 +18°C° 0 mm 2 mps 733 mmHg 73%
    09:00 +19°C° 0 mm 3 mps 733 mmHg 63%
    10:00 +21°C° 0 mm 3 mps 733 mmHg 54%
    11:00 +21°C° 0 mm 3 mps 733 mmHg 50%
    12:00 +22°C° 0 mm 4 mps 733 mmHg 46%
    13:00 +22°C° 0 mm 4 mps 733 mmHg 42%
    14:00 +22°C° 0 mm 4 mps 733 mmHg 43%
    15:00 +22°C° 0 mm 4 mps 733 mmHg 45%
    16:00 +22°C° 0 mm 4 mps 732 mmHg 46%
    17:00 +20°C° 0 mm 3 mps 732 mmHg 52%
    18:00 +18°C° 0 mm 3 mps 732 mmHg 59%
    19:00 +16°C° 0 mm 2 mps 732 mmHg 66%
    20:00 +15°C° 0 mm 2 mps 732 mmHg 68%
    21:00 +15°C° 0 mm 2 mps 732 mmHg 70%
    22:00 +14°C° 0 mm 2 mps 733 mmHg 72%
    23:00 +14°C° 0 mm 1 mps 733 mmHg 73%

    25 April, Wednesday

    Time Temperature Precipitation Wind Pressure Humidity
    00:00 +13°C° 0 mm 1 mps 733 mmHg 74%
    01:00 +13°C° 0 mm 1 mps 732 mmHg 76%
    02:00 +13°C° 0 mm 1 mps 732 mmHg 77%
    03:00 +13°C° 0 mm 1 mps 732 mmHg 79%
    04:00 +12°C° 0 mm 1 mps 732 mmHg 80%
    05:00 +14°C° 0 mm 1 mps 732 mmHg 78%
    06:00 +15°C° 0 mm 1 mps 733 mmHg 75%
    07:00 +18°C° 0 mm 1 mps 733 mmHg 72%
    08:00 +19°C° 0 mm 2 mps 733 mmHg 68%
    09:00 +20°C° 0 mm 3 mps 733 mmHg 63%
    10:00 +22°C° 0 mm 3 mps 733 mmHg 59%
    11:00 +23°C° 0 mm 4 mps 733 mmHg 56%
    12:00 +25°C° 0 mm 4 mps 733 mmHg 53%
    13:00 +26°C° 0 mm 4 mps 732 mmHg 50%
    14:00 +26°C° 0 mm 4 mps 732 mmHg 50%
    15:00 +25°C° 0 mm 4 mps 731 mmHg 51%
    16:00 +25°C° 0 mm 4 mps 731 mmHg 52%
    17:00 +22°C° 0 mm 3 mps 731 mmHg 59%
    18:00 +21°C° 0 mm 3 mps 730 mmHg 65%
    19:00 +19°C° 0 mm 2 mps 730 mmHg 72%
    20:00 +18°C° 0 mm 2 mps 730 mmHg 74%
    21:00 +17°C° 0 mm 2 mps 730 mmHg 76%
    22:00 +16°C° 0 mm 2 mps 730 mmHg 78%
    23:00 +16°C° 0 mm 2 mps 730 mmHg 79%

    26 April, Thursday

    Time Temperature Precipitation Wind Pressure Humidity
    00:00 +15°C° 0 mm 2 mps 730 mmHg 80%
    01:00 +15°C° 0 mm 1 mps 729 mmHg 81%
    02:00 +15°C° 0.1 mm 1 mps 729 mmHg 82%
    03:00 +14°C° 0.1 mm 1 mps 729 mmHg 83%
    04:00 +14°C° 0.1 mm 1 mps 729 mmHg 83%
    05:00 +15°C° 0 mm 1 mps 729 mmHg 80%
    06:00 +16°C° 0 mm 1 mps 729 mmHg 77%
    07:00 +18°C° 0 mm 1 mps 730 mmHg 73%
    08:00 +19°C° 0 mm 2 mps 730 mmHg 67%
    09:00 +21°C° 0 mm 2 mps 730 mmHg 62%
    10:00 +24°C° 0 mm 2 mps 730 mmHg 56%
    11:00 +25°C° 0.2 mm 3 mps 729 mmHg 54%
    12:00 +25°C° 0.2 mm 3 mps 729 mmHg 52%
    13:00 +26°C° 0.2 mm 4 mps 728 mmHg 49%
    14:00 +26°C° 0.3 mm 4 mps 728 mmHg 51%
    15:00 +26°C° 0.3 mm 4 mps 728 mmHg 53%
    16:00 +25°C° 0.3 mm 4 mps 727 mmHg 54%
    17:00 +22°C° 0.5 mm 3 mps 727 mmHg 63%
    18:00 +20°C° 0.5 mm 3 mps 727 mmHg 71%
    19:00 +18°C° 0.5 mm 2 mps 727 mmHg 80%
    20:00 +17°C° 0.2 mm 2 mps 727 mmHg 83%
    21:00 +16°C° 0.2 mm 2 mps 727 mmHg 86%
    22:00 +15°C° 0.2 mm 2 mps 728 mmHg 90%
    23:00 +14°C° 0.4 mm 2 mps 728 mmHg 90%
    Show more